EGV1339 EGLL-EGCC

Flight info

Callsign EGV1339
Flight time 0h 32m
Altitude 18000
Route ULTIB T420 ELVOS
Aircraft A346/H-SDE2E3FGHIJ3J4J5M1RWXY/LB1D1

Departure

Time 2026-05-05 15:46
Airport London Heathrow Airport (EGLL)

Arrival

Time 2026-05-05 16:18
Airport Manchester Airport (EGCC)
Time Latitude Longitude Altitude Speed Heading
2026-05-05 15:20 51.46986 -0.46985 96 ft 0 kts 269°
2026-05-05 15:34 51.46986 -0.46981 95 ft 0 kts 269°
2026-05-05 15:35 51.46986 -0.46942 102 ft 0 kts 269°
2026-05-05 15:35 51.46986 -0.46899 96 ft 0 kts 269°
2026-05-05 15:35 51.46988 -0.46859 96 ft 0 kts 256°
2026-05-05 15:35 51.46997 -0.46837 96 ft 0 kts 215°
2026-05-05 15:36 51.46998 -0.46837 96 ft 0 kts 211°
2026-05-05 15:36 51.46993 -0.46842 96 ft 1 kts 211°
2026-05-05 15:36 51.46982 -0.46852 97 ft 2 kts 211°
2026-05-05 15:36 51.46974 -0.46860 96 ft 0 kts 211°
2026-05-05 15:37 51.46982 -0.46853 97 ft 1 kts 211°
2026-05-05 15:37 51.46998 -0.46839 96 ft 0 kts 197°
2026-05-05 15:40 51.46964 -0.46856 97 ft 14 kts 193°
2026-05-05 15:40 51.46855 -0.46863 97 ft 17 kts 180°
2026-05-05 15:40 51.46763 -0.46873 98 ft 3 kts 240°
2026-05-05 15:40 51.46754 -0.46947 96 ft 8 kts 258°
2026-05-05 15:41 51.46746 -0.47057 98 ft 12 kts 270°
2026-05-05 15:41 51.46746 -0.47204 98 ft 14 kts 270°
2026-05-05 15:41 51.46746 -0.47386 98 ft 18 kts 270°
2026-05-05 15:41 51.46745 -0.47604 98 ft 21 kts 269°
2026-05-05 15:42 51.46744 -0.47852 95 ft 23 kts 270°
2026-05-05 15:42 51.46744 -0.48060 94 ft 0 kts 269°
2026-05-05 15:42 51.46744 -0.48072 95 ft 3 kts 269°
2026-05-05 15:42 51.46743 -0.48144 95 ft 9 kts 269°
2026-05-05 15:43 51.46743 -0.48264 95 ft 12 kts 270°
2026-05-05 15:43 51.46742 -0.48398 95 ft 6 kts 270°
2026-05-05 15:43 51.46726 -0.48455 98 ft 6 kts 212°
2026-05-05 15:43 51.46673 -0.48466 97 ft 10 kts 183°
2026-05-05 15:44 51.46615 -0.48467 95 ft 0 kts 180°
2026-05-05 15:44 51.46613 -0.48467 95 ft 3 kts 180°
2026-05-05 15:45 51.46560 -0.48467 95 ft 10 kts 180°
2026-05-05 15:45 51.46492 -0.48434 98 ft 12 kts 127°
2026-05-05 15:45 51.46479 -0.48302 96 ft 13 kts 89°
2026-05-05 15:45 51.46479 -0.48146 96 ft 16 kts 90°
2026-05-05 15:46 51.46481 -0.47594 94 ft 85 kts 90°
2026-05-05 15:46 51.46485 -0.46296 100 ft 145 kts 90°
2026-05-05 15:46 51.46495 -0.44405 177 ft 187 kts 87°
2026-05-05 15:46 51.46494 -0.42238 745 ft 195 kts 86°
2026-05-05 15:47 51.46880 -0.40245 1625 ft 184 kts 51°
2026-05-05 15:47 51.47423 -0.39222 2210 ft 182 kts 48°
2026-05-05 15:47 51.48613 -0.37094 2883 ft 201 kts 47°
2026-05-05 15:47 51.49572 -0.35320 3261 ft 220 kts 49°
2026-05-05 15:48 51.50610 -0.33332 3694 ft 240 kts 50°
2026-05-05 15:48 51.51707 -0.31189 4293 ft 254 kts 50°
2026-05-05 15:48 51.52679 -0.28797 5108 ft 259 kts 65°
2026-05-05 15:48 51.53292 -0.26048 5693 ft 264 kts 71°
2026-05-05 15:49 51.53827 -0.23211 5966 ft 266 kts 72°
2026-05-05 15:49 51.54423 -0.20407 5957 ft 264 kts 60°
2026-05-05 15:49 51.55653 -0.18280 5960 ft 262 kts 30°
2026-05-05 15:49 51.57388 -0.17464 6020 ft 263 kts 359°
2026-05-05 15:50 51.59158 -0.18192 6043 ft 265 kts 335°
2026-05-05 15:50 51.60655 -0.19918 6050 ft 266 kts 321°
2026-05-05 15:50 51.62044 -0.21905 6048 ft 268 kts 319°
2026-05-05 15:50 51.63418 -0.23938 6060 ft 267 kts 319°
2026-05-05 15:51 51.64785 -0.25972 6053 ft 267 kts 319°
2026-05-05 15:51 51.66210 -0.27893 6056 ft 267 kts 324°
2026-05-05 15:51 51.67783 -0.29592 6315 ft 278 kts 330°
2026-05-05 15:51 51.69438 -0.31205 7378 ft 275 kts 330°
2026-05-05 15:52 51.71070 -0.32776 8575 ft 272 kts 330°
2026-05-05 15:52 51.72707 -0.34348 9598 ft 276 kts 329°
2026-05-05 15:52 51.74378 -0.35956 10419 ft 284 kts 329°
2026-05-05 15:52 51.76119 -0.37639 11003 ft 300 kts 329°
2026-05-05 15:53 51.77961 -0.39423 11452 ft 319 kts 329°
2026-05-05 15:53 51.79890 -0.41293 11922 ft 337 kts 329°
2026-05-05 15:53 51.81960 -0.43291 12425 ft 355 kts 328°
2026-05-05 15:53 51.84138 -0.45399 12860 ft 373 kts 328°
2026-05-05 15:54 51.86403 -0.47604 13495 ft 385 kts 328°
2026-05-05 15:54 51.88712 -0.49853 14299 ft 390 kts 328°
2026-05-05 15:54 51.91054 -0.52133 15085 ft 394 kts 328°
2026-05-05 15:54 51.93419 -0.54435 15872 ft 399 kts 328°
2026-05-05 15:55 51.95815 -0.56772 16661 ft 404 kts 328°
2026-05-05 15:55 51.98237 -0.59144 17408 ft 409 kts 328°
2026-05-05 15:55 52.00688 -0.61546 17855 ft 413 kts 328°
2026-05-05 15:55 52.03154 -0.63960 17969 ft 414 kts 328°
2026-05-05 15:56 52.05620 -0.66370 17971 ft 413 kts 328°
2026-05-05 15:56 52.08085 -0.68789 17970 ft 413 kts 328°
2026-05-05 15:56 52.10542 -0.71206 17971 ft 413 kts 327°
2026-05-05 15:56 52.12997 -0.73631 17970 ft 413 kts 327°
2026-05-05 15:57 52.15452 -0.76054 17968 ft 413 kts 328°
2026-05-05 15:57 52.17910 -0.78481 17965 ft 413 kts 328°
2026-05-05 15:57 52.20365 -0.80906 17965 ft 413 kts 328°
2026-05-05 15:57 52.22822 -0.83338 17964 ft 413 kts 327°
2026-05-05 15:58 52.25277 -0.85772 17963 ft 413 kts 327°
2026-05-05 15:58 52.27731 -0.88206 17960 ft 413 kts 327°
2026-05-05 15:58 52.30183 -0.90643 17962 ft 411 kts 327°
2026-05-05 15:58 52.32591 -0.93039 17959 ft 410 kts 327°
2026-05-05 15:59 52.35028 -0.95469 17967 ft 410 kts 327°
2026-05-05 15:59 52.37467 -0.97901 17965 ft 410 kts 327°
2026-05-05 15:59 52.39902 -1.00336 17975 ft 410 kts 327°
2026-05-05 15:59 52.42336 -1.02771 17973 ft 410 kts 327°
2026-05-05 16:00 52.44769 -1.05208 17975 ft 409 kts 327°
2026-05-05 16:00 52.47198 -1.07646 17982 ft 409 kts 327°
2026-05-05 16:00 52.49630 -1.10089 17986 ft 409 kts 327°
2026-05-05 16:00 52.52059 -1.12532 17995 ft 410 kts 327°
2026-05-05 16:01 52.54491 -1.14977 17995 ft 409 kts 327°
2026-05-05 16:01 52.56907 -1.17414 17995 ft 409 kts 327°
2026-05-05 16:01 52.59333 -1.19865 17996 ft 408 kts 327°
2026-05-05 16:01 52.61757 -1.22315 17998 ft 408 kts 327°
2026-05-05 16:02 52.64183 -1.24769 17997 ft 408 kts 327°
2026-05-05 16:02 52.66606 -1.27224 17998 ft 408 kts 326°
2026-05-05 16:02 52.69027 -1.29680 17998 ft 408 kts 327°
2026-05-05 16:02 52.71444 -1.32136 17997 ft 408 kts 326°
2026-05-05 16:03 52.73866 -1.34600 17999 ft 408 kts 326°
2026-05-05 16:03 52.76285 -1.37064 18010 ft 408 kts 326°
2026-05-05 16:03 52.78703 -1.39526 18002 ft 408 kts 326°
2026-05-05 16:03 52.81118 -1.41997 17982 ft 408 kts 326°
2026-05-05 16:04 52.83522 -1.44463 17713 ft 406 kts 326°
2026-05-05 16:04 52.85918 -1.46923 17424 ft 404 kts 326°
2026-05-05 16:04 52.88299 -1.49368 17031 ft 401 kts 326°
2026-05-05 16:04 52.90666 -1.51802 16529 ft 399 kts 326°
2026-05-05 16:05 52.93018 -1.54223 15943 ft 397 kts 326°
2026-05-05 16:05 52.95363 -1.56640 15319 ft 396 kts 326°
2026-05-05 16:05 52.97711 -1.59061 14692 ft 396 kts 326°
2026-05-05 16:05 53.00045 -1.61473 14058 ft 395 kts 327°
2026-05-05 16:06 53.02372 -1.63882 13473 ft 392 kts 327°
2026-05-05 16:06 53.04628 -1.66355 12962 ft 385 kts 321°
2026-05-05 16:06 53.06593 -1.69313 12508 ft 377 kts 313°
2026-05-05 16:06 53.08325 -1.72540 12072 ft 371 kts 310°
2026-05-05 16:07 53.09984 -1.75801 11519 ft 367 kts 309°
2026-05-05 16:07 53.11628 -1.79049 10973 ft 365 kts 310°
2026-05-05 16:07 53.13265 -1.82261 10453 ft 362 kts 310°
2026-05-05 16:07 53.14340 -1.84372 10122 ft 360 kts 310°
2026-05-05 16:08 53.15959 -1.87540 9579 ft 357 kts 310°
2026-05-05 16:08 53.17565 -1.90669 9015 ft 354 kts 310°
2026-05-05 16:08 53.19164 -1.93780 8459 ft 351 kts 310°
2026-05-05 16:08 53.20754 -1.96868 7927 ft 350 kts 311°
2026-05-05 16:09 53.22336 -1.99943 7378 ft 348 kts 311°
2026-05-05 16:09 53.23836 -2.03097 6836 ft 347 kts 302°
2026-05-05 16:09 53.24687 -2.06862 6298 ft 349 kts 281°
2026-05-05 16:09 53.24632 -2.10883 5749 ft 349 kts 259°
2026-05-05 16:10 53.23928 -2.14760 5219 ft 347 kts 251°
2026-05-05 16:10 53.23119 -2.18501 4897 ft 332 kts 250°
2026-05-05 16:10 53.22343 -2.21925 4934 ft 299 kts 250°
2026-05-05 16:10 53.21629 -2.25006 4954 ft 271 kts 250°
2026-05-05 16:11 53.20979 -2.27805 4961 ft 246 kts 250°
2026-05-05 16:11 53.19260 -2.35145 4674 ft 209 kts 250°
2026-05-05 16:12 53.18739 -2.37347 4418 ft 199 kts 250°
2026-05-05 16:12 53.17725 -2.41561 3755 ft 194 kts 250°
2026-05-05 16:13 53.17929 -2.47388 3055 ft 180 kts 323°
2026-05-05 16:13 53.18953 -2.48587 3035 ft 179 kts 328°
2026-05-05 16:13 53.20008 -2.49702 3010 ft 180 kts 329°
2026-05-05 16:14 53.22334 -2.50718 3001 ft 178 kts 13°
2026-05-05 16:14 53.24602 -2.49134 3002 ft 180 kts 36°
2026-05-05 16:15 53.26365 -2.46169 2919 ft 179 kts 48°
2026-05-05 16:15 53.27889 -2.43062 2431 ft 166 kts 49°
2026-05-05 16:16 53.29295 -2.40122 1976 ft 160 kts 50°
2026-05-05 16:16 53.30682 -2.37232 1580 ft 156 kts 48°
2026-05-05 16:17 53.32028 -2.34437 1119 ft 153 kts 49°
2026-05-05 16:17 53.32701 -2.33040 901 ft 154 kts 49°
2026-05-05 16:18 53.34062 -2.30209 469 ft 156 kts 49°
2026-05-05 16:18 53.34744 -2.28793 280 ft 155 kts 50°
2026-05-05 16:18 53.35649 -2.26929 249 ft 24 kts 50°
2026-05-05 16:19 53.35755 -2.26708 254 ft 24 kts 46°
2026-05-05 16:19 53.35868 -2.26694 246 ft 19 kts 350°
2026-05-05 16:19 53.35888 -2.26861 242 ft 8 kts 231°
2026-05-05 16:20 53.35884 -2.26870 242 ft 0 kts 231°
2026-05-05 16:23 53.35853 -2.26941 242 ft 15 kts 242°
2026-05-05 16:23 53.35701 -2.27287 241 ft 21 kts 231°
2026-05-05 16:24 53.35607 -2.27483 241 ft 20 kts 231°
2026-05-05 16:24 53.35555 -2.27588 241 ft 0 kts 231°
2026-05-05 16:27 53.35555 -2.27589 241 ft 0 kts 231°
2026-05-05 16:27 53.35539 -2.27631 241 ft 8 kts 251°
2026-05-05 16:28 53.35557 -2.27726 241 ft 10 kts 312°
2026-05-05 16:28 53.35629 -2.27770 241 ft 12 kts
2026-05-05 16:28 53.35727 -2.27753 241 ft 16 kts
2026-05-05 16:28 53.35843 -2.27735 241 ft 13 kts
2026-05-05 16:29 53.35929 -2.27786 241 ft 15 kts 310°
2026-05-05 16:29 53.36009 -2.27924 241 ft 18 kts 315°
2026-05-05 16:29 53.36102 -2.28086 241 ft 14 kts 314°
2026-05-05 16:29 53.36174 -2.28210 241 ft 17 kts 314°
2026-05-05 16:30 53.36263 -2.28366 241 ft 20 kts 314°
2026-05-05 16:30 53.36359 -2.28496 241 ft 12 kts 349°
2026-05-05 16:30 53.36442 -2.28511 241 ft 13 kts 317°
2026-05-05 16:30 53.36517 -2.28640 241 ft 17 kts 314°
2026-05-05 16:31 53.36612 -2.28754 241 ft 11 kts 355°
2026-05-05 16:31 53.36673 -2.28702 241 ft 2 kts 44°
2026-05-05 16:31 53.36689 -2.28680 241 ft 4 kts 24°
2026-05-05 16:31 53.36712 -2.28691 241 ft 5 kts 332°
2026-05-05 16:32 53.36744 -2.28734 241 ft 6 kts 314°
2026-05-05 16:32 53.36755 -2.28755 241 ft 0 kts 314°